Location: Hilton Head Island
(32.2163°N, 80.7526°W)
Time: 18:35:29
(UTC-04:00)

A-11 Canister half - Pass Details

Date: 25 February 2026
Orbit: 1525 x 1683 km, 47.3° (Epoch: 10 March)

Event Time Altitude Azimuth Distance (km) Brightness Sun altitude
Rises 21:42:36 0° 306° (NW) 4,675 12.3 -43.6°
Reaches altitude 10° 21:45:40 10° 303° (WNW) 3,691 11.6 -44.2°
Enters shadow 21:52:05 48° 282° (WNW) 1,926 9.6 -45.4°
